FW7749 Weather Reports


time (UTC)temp
C
wind
direction
speed
KPH
gust
KPH
rain 1hr
cm
rain 24hr
cm
rain mn
cm
humidity
%
barometer
mb
20260906104545 20 0.0 0.0 0.00 0.10 0.00 87 1016.5
20260906103520 20 0.0 0.0 0.00 0.10 0.00 87 1016.5
20260906102552 20 0.0 0.0 0.00 0.10 0.00 87 1016.6
20260906101523 20 0.0 0.0 0.00 0.10 0.00 87 1016.5
20260906100632 20 0.0 0.0 0.00 0.10 0.00 87 1016.5
20260906095600 20 0.0 0.0 0.00 0.10 0.00 87 1016.5
20260906094521 20 0.0 0.0 0.00 0.10 0.00 87 1016.4
20260906093553 20 0.0 0.0 0.00 0.10 0.00 87 1016.4
20260906092603 20 0.0 0.0 0.00 0.10 0.00 87 1016.2
20260906091520 20 0.0 0.0 0.00 0.10 0.00 87 1016.4
20260906090553 21 0.0 0.0 0.00 0.10 0.00 86 1016.5
20260906085525 21 0.0 0.0 0.00 0.10 0.00 87 1016.4
20260906084539 21 0.0 0.0 0.00 0.10 0.00 86 1016.6
20260906083546 21 0.0 0.0 0.00 0.10 0.00 86 1016.4
20260906082524 21 0.0 0.0 0.00 0.10 0.00 87 1016.4
20260906081552 21 0.0 0.0 0.00 0.10 0.00 87 1016.3
20260906080531 21 0.0 0.0 0.00 0.10 0.00 87 1016.2
20260906075523 21 0.0 0.0 0.00 0.10 0.00 87 1016.3
20260906074602 20 0.0 0.0 0.00 0.10 0.00 87 1016.3
20260906073527 20 0.0 0.0 0.00 0.10 0.00 87 1016.4
20260906072552 20 0.0 0.0 0.00 0.10 0.00 87 1016.4
20260906071548 21 0.0 0.0 0.00 0.10 0.00 87 1016.1
20260906070543 21 0.0 0.0 0.00 0.10 0.00 87 1016.0
20260906065553 21 0.0 0.0 0.00 0.10 0.00 87 1016.1
20260906064551 21 0.0 0.0 0.00 0.10 0.00 86 1016.1
20260906063552 22 0.0 0.0 0.00 0.10 0.00 85 1016.2
20260906062552 22 0.0 0.0 0.00 0.10 0.00 85 1016.5
20260906061530 22 0.0 0.0 0.00 0.10 0.00 85 1016.5
20260906060552 22 0.0 0.0 0.00 0.10 0.00 86 1016.4
20260906055537 21 0.0 0.0 0.00 0.10 0.00 86 1016.4
20260906054529 22 0.0 0.0 0.00 0.10 0.00 87 1016.5
20260906053555 22 0.0 0.0 0.00 0.10 0.00 86 1016.6
20260906052526 22 0.0 0.0 0.00 0.10 0.00 86 1016.7
20260906051552 22 0.0 0.0 0.00 0.10 0.00 86 1016.8
20260906050538 22 0.0 0.0 0.00 0.10 0.00 85 1016.8
20260906045523 21 0.0 0.0 0.00 0.10 0.00 86 1016.7
20260906044552 21 0.0 0.0 0.00 0.10 0.00 86 1016.7
20260906043520 21 0.0 0.0 0.00 0.10 0.00 86 1016.8
20260906042612 21 0.0 0.0 0.00 0.10 0.00 85 1017.0
20260906041558 21 0.0 0.0 0.00 0.10 0.00 85 1016.9
20260906040519 21 0.0 0.0 0.00 0.10 0.00 85 1017.2
20260906035552 21 0.0 0.0 0.00 0.10 0.10 85 1017.1
20260906034524 21 0.0 0.0 0.00 0.10 0.10 85 1017.2
20260906033526 21 0.0 0.0 0.00 0.10 0.10 85 1017.1
20260906032622 22 0.0 0.0 0.00 0.10 0.10 85 1017.1
20260906031522 22 0.0 0.0 0.00 0.10 0.10 84 1017.2
20260906030612 22 0.0 0.0 0.00 0.10 0.10 85 1017.3
20260906025537 22 0.0 0.0 0.00 0.10 0.10 84 1017.2
20260906024521 22 0.0 0.0 0.00 0.10 0.10 84 1016.9
20260906023552 22 0.0 0.0 0.00 0.10 0.10 83 1017.0
20260906022546 22 0.0 0.0 0.00 0.10 0.10 83 1016.7
20260906021522 22 0.0 0.0 0.00 0.10 0.10 83 1016.4
20260906020547 22 0.0 0.0 0.00 0.10 0.10 84 1016.4
20260906015525 22 0.0 0.0 0.00 0.10 0.10 85 1016.3
20260906014552 22 0.0 0.0 0.00 0.10 0.10 84 1016.2
20260906013550 22 0.0 0.0 0.00 0.10 0.10 84 1016.1
20260906012524 22 0.0 0.0 0.00 0.10 0.10 84 1015.9
20260906011622 23 0.0 0.0 0.00 0.10 0.10 83 1016.2
20260906010528 23 0.0 0.0 0.00 0.10 0.10 84 1016.2
20260906005632 23 0.0 0.0 0.00 0.10 0.10 83 1016.1
20260906004549 23 0.0 0.0 0.00 0.10 0.10 83 1015.9
20260906003527 23 0.0 0.0 0.00 0.10 0.10 83 1015.8
20260906002554 23 0.0 0.0 0.00 0.10 0.10 84 1015.6
20260906001532 24 0.0 0.0 0.08 0.10 0.10 79 1015.9
20260906000552 24 0.0 0.0 0.10 0.10 0.10 80 1016.1
20260905235613 24 0.0 0.0 0.10 0.10 0.10 76 1015.9
20260905234532 25 0.0 0.0 0.10 0.10 0.10 76 1016.1
20260905233552 25 0.0 0.0 0.10 0.10 0.10 78 1015.8
20260905232535 25 344 1.6 3.2 0.10 0.10 0.10 77 1015.9
20260905231525 27 0.0 0.0 0.03 0.03 0.03 61 1016.3
20260905230556 27 0.0 0.0 0.00 0.00 0.00 60 1016.1
20260905225526 28 0.0 0.0 0.00 0.00 0.00 57 1016.1
20260905224553 28 350 0.0 4.8 0.00 0.00 0.00 56 1016.0
20260905223559 28 163 0.0 3.2 0.00 0.00 0.00 58 1015.9
20260905222523 28 0.0 0.0 0.00 0.00 0.00 58 1015.9
20260905221612 28 12 1.6 4.8 0.00 0.00 0.00 59 1015.8
20260905220523 28 113 0.0 1.6 0.00 0.00 0.00 63 1015.9
20260905215612 27 336 0.0 3.2 0.00 0.00 0.00 64 1015.9
20260905214615 28 0.0 0.0 0.00 0.00 0.00 63 1016.2
20260905213520 28 0.0 0.0 0.00 0.00 0.00 64 1016.1
20260905212552 28 334 4.8 9.7 0.00 0.00 0.00 62 1016.6
20260905211524 30 335 1.6 3.2 0.00 0.00 0.00 61 1016.2
20260905210518 31 236 1.6 4.8 0.00 0.00 0.00 59 1016.4
20260905205602 30 35 0.0 1.6 0.00 0.00 0.00 59 1016.3
20260905204523 31 98 1.6 4.8 0.00 0.00 0.00 59 1016.5
20260905203552 30 82 1.6 1.6 0.00 0.00 0.00 58 1016.8
20260905202545 30 1.6 1.6 0.00 0.00 0.00 58 1016.8
20260905201522 30 0.0 0.0 0.00 0.00 0.00 62 1016.8
20260905200551 29 112 1.6 3.2 0.00 0.00 0.00 61 1016.8
20260905195523 28 0.0 0.0 0.00 0.00 0.00 60 1016.9
20260905194522 28 122 1.6 3.2 0.00 0.00 0.00 64 1017.1
20260905193544 28 48 1.6 3.2 0.00 0.00 0.00 64 1017.1
20260905192525 28 59 1.6 1.6 0.00 0.00 0.00 65 1017.1
20260905191551 28 62 3.2 4.8 0.00 0.00 0.00 66 1017.6
20260905190547 28 0.0 1.6 0.00 0.00 0.00 66 1017.8
20260905185526 28 113 3.2 6.4 0.00 0.00 0.00 64 1017.9
20260905184602 27 0.0 0.0 0.00 0.00 0.00 64 1017.9
20260905183529 27 149 1.6 3.2 0.00 0.00 0.00 65 1017.7
20260905182552 27 1.6 8.0 0.00 0.00 0.00 63 1017.7
20260905181538 26 206 1.6 3.2 0.00 0.00 0.00 68 1018.2
20260905180522 25 75 0.0 3.2 0.00 0.00 0.00 69 1018.5
20260905175551 24 0.0 0.0 0.00 0.00 0.00 72 1018.4
20260905174523 24 184 0.0 1.6 0.00 0.00 0.00 71 1019.0
20260905173612 24 0.0 0.0 0.00 0.00 0.00 70 1018.9
20260905172614 24 0.0 0.0 0.00 0.00 0.00 69 1018.7
20260905171519 25 0.0 0.0 0.00 0.00 0.00 67 1018.7
20260905170552 25 82 1.6 6.4 0.00 0.00 0.00 64 1018.8
20260905165530 25 214 6.4 14.5 0.00 0.00 0.00 62 1019.0
20260905164525 26 147 9.7 14.5 0.00 0.00 0.00 61 1019.4
20260905163557 28 152 4.8 9.7 0.00 0.00 0.00 69 1019.4
20260905162526 27 1.6 1.6 0.00 0.00 0.00 71 1018.5
20260905161551 27 0.0 0.0 0.00 0.00 0.00 72 1018.6
20260905160537 26 0.0 0.0 0.00 0.00 0.00 72 1018.6
20260905155533 26 0.0 1.6 0.00 0.00 0.00 73 1018.8
20260905154553 26 0.0 1.6 0.00 0.00 0.00 73 1018.8
20260905153523 26 334 0.0 1.6 0.00 0.00 0.00 75 1018.8
20260905152553 25 185 1.6 3.2 0.00 0.00 0.00 78 1018.6
20260905151554 25 19 1.6 1.6 0.00 0.00 0.00 79 1018.8
20260905150540 24 4.8 4.8 0.00 0.00 0.00 79 1019.0
20260905145551 24 0.0 0.0 0.00 0.00 0.00 81 1019.2
20260905144525 23 0.0 0.0 0.00 0.00 0.00 81 1019.1
20260905143519 23 0.0 0.0 0.00 0.00 0.00 83 1019.1
20260905142603 23 0.0 0.0 0.00 0.00 0.00 82 1019.2
20260905141546 22 0.0 0.0 0.00 0.00 0.00 83 1019.4
20260905140553 22 0.0 0.0 0.00 0.00 0.00 84 1019.2
20260905135545 22 0.0 0.0 0.00 0.00 0.00 83 1019.3
20260905134523 21 0.0 0.0 0.00 0.00 0.00 84 1019.3
20260905133551 21 0.0 0.0 0.00 0.00 0.00 84 1019.5
20260905132523 22 0.0 0.0 0.00 0.00 0.00 84 1019.5
20260905131523 21 0.0 0.0 0.00 0.00 0.00 84 1019.6
20260905130609 21 0.0 0.0 0.00 0.00 0.00 84 1019.7
20260905125519 21 0.0 0.0 0.00 0.00 0.00 85 1019.7
20260905124551 21 0.0 0.0 0.00 0.00 0.00 85 1019.6
20260905123551 21 0.0 0.0 0.00 0.00 0.00 85 1019.8
20260905122525 20 0.0 0.0 0.00 0.00 0.00 85 1019.5
20260905121601 20 0.0 0.0 0.00 0.00 0.00 85 1019.3
20260905120526 21 0.0 0.0 0.00 0.00 0.00 84 1019.4
20260905115611 21 0.0 0.0 0.00 0.00 0.00 84 1019.2
20260905114537 21 0.0 0.0 0.00 0.00 0.00 85 1018.8
20260905113542 20 0.0 0.0 0.00 0.00 0.00 85 1018.9
20260905112611 20 0.0 0.0 0.00 0.00 0.00 85 1019.0
20260905111533 20 0.0 0.0 0.00 0.00 0.00 85 1018.9
20260905110551 21 0.0 0.0 0.00 0.00 0.00 85 1018.9
20260905105554 21 0.0 0.0 0.00 0.00 0.00 85 1018.7